Weather History for West Palm Beach, FL

Change the Weather History Date:

Tuesday, April 22, 2014

  Actual Average Record
Temperature  
Mean Temperature 74 °F 75 °F  
Max Temperature 83 °F 83 °F 93 °F (1988)
Min Temperature 65 °F 67 °F 46 °F (1901)
Degree Days  
Heating Degree Days 0 0  
Month to date heating degree days 0 0  
Since 1 July heating degree days 122 229  
Cooling Degree Days 9 10  
Month to date cooling degree days 222 183  
Year to date cooling degree days 770 611  
Growing Degree Days 23 (Base 50)    
Moisture  
Dew Point 64 °F    
Average Humidity 74    
Maximum Humidity 93    
Minimum Humidity 54    
Precipitation  
Precipitation 0.00 in 0.12 in 2.22 in (1954)
Month to date precipitation 1.04 2.82  
Year to date precipitation 14.92 13.36  
Snow  
Snow 0.00 in - - ()
Month to date snowfall 0.0  
Since 1 July snowfall 0.0  
Snow Depth 0.00 in    
Sea Level Pressure  
Sea Level Pressure 29.90 in    
Wind  
Wind Speed 5 mph (SW)    
Max Wind Speed 12 mph    
Max Gust Speed 14 mph    
Visibility 10 miles    
Events      
T = Trace of Precipitation, MM = Missing Value Source: NWS Daily Summary

Daily Weather History Graph

Daily Weather History Graph

Search for Another Location

Airport:

Trip Planner

Search our weather history database for the weather conditions in past years. The results will help you decide how hot, cold, wet, or windy it might be!

Date:

Astronomy

Apr. 22, 2014 Rise Set
Actual Time 6:50 AM EDT 7:48 PM EDT
Civil Twilight 6:26 AM EDT 8:12 PM EDT
Nautical Twilight 5:57 AM EDT 8:40 PM EDT
Astronomical Twilight 5:28 AM EDT 9:09 PM EDT
Moon 1:58 AM EDT (4/22) 1:25 PM EDT (4/22)
Length of Visible Light 13h 46m
Length of Day
12h 58m
Last Quarter, 46% of the Moon is Illuminated
Apr 22
Last Quarter
Apr 29
New
May 6
First Quarter
May 14
Full
May 21
Last Quarter

Hourly Weather History & Observations

Time (EDT) Temp. Heat Index Dew Point Humidity Pressure Visibility Wind Dir Wind Speed Gust Speed Precip Events Conditions
12:53 AM 68.0 °F - 64.0 °F 87% 29.95 in 10.0 mi NNW 4.6 mph - N/A   Scattered Clouds
1:53 AM 68.0 °F - 63.0 °F 84% 29.93 in 10.0 mi NNW 4.6 mph - N/A   Scattered Clouds
2:53 AM 68.0 °F - 64.0 °F 87% 29.91 in 10.0 mi NW 4.6 mph - N/A   Mostly Cloudy
3:53 AM 66.9 °F - 64.0 °F 90% 29.91 in 10.0 mi NW 8.1 mph - N/A   Mostly Cloudy
4:53 AM 66.9 °F - 64.0 °F 90% 29.91 in 10.0 mi NW 8.1 mph - N/A   Overcast
5:53 AM 66.9 °F - 63.0 °F 87% 29.91 in 10.0 mi NW 6.9 mph - N/A   Overcast
6:53 AM 64.9 °F - 62.1 °F 90% 29.92 in 10.0 mi NW 3.5 mph - N/A   Scattered Clouds
7:53 AM 66.9 °F - 63.0 °F 87% 29.93 in 10.0 mi WNW 6.9 mph - N/A   Mostly Cloudy
8:53 AM 72.0 °F - 62.1 °F 71% 29.93 in 10.0 mi NNW 4.6 mph - N/A   Mostly Cloudy
9:53 AM 75.0 °F - 61.0 °F 62% 29.94 in 10.0 mi NNW 3.5 mph - N/A   Mostly Cloudy
10:53 AM 77.0 °F - 62.1 °F 60% 29.94 in 10.0 mi Calm Calm - N/A   Mostly Cloudy
11:53 AM 79.0 °F - 62.1 °F 56% 29.94 in 10.0 mi South 4.6 mph - N/A   Mostly Cloudy
12:53 PM 80.1 °F 81.5 °F 63.0 °F 56% 29.93 in 10.0 mi Variable 3.5 mph - N/A   Mostly Cloudy
1:53 PM 81.0 °F 82.5 °F 64.0 °F 56% 29.91 in 10.0 mi SE 4.6 mph - N/A   Mostly Cloudy
2:53 PM 79.0 °F - 64.0 °F 60% 29.89 in 10.0 mi ESE 9.2 mph - N/A   Mostly Cloudy
3:53 PM 80.1 °F 81.9 °F 64.9 °F 60% 29.86 in 10.0 mi ESE 4.6 mph - N/A   Mostly Cloudy
4:53 PM 80.1 °F 81.9 °F 64.9 °F 60% 29.85 in 10.0 mi East 8.1 mph - N/A   Mostly Cloudy
5:53 PM 78.1 °F - 66.0 °F 66% 29.84 in 10.0 mi ESE 5.8 mph - N/A   Scattered Clouds
6:53 PM 78.1 °F - 66.0 °F 66% 29.85 in 10.0 mi ESE 8.1 mph - N/A   Scattered Clouds
7:53 PM 77.0 °F - 66.0 °F 69% 29.85 in 10.0 mi SSE 5.8 mph - N/A   Mostly Cloudy
8:53 PM 77.0 °F - 66.0 °F 69% 29.87 in 10.0 mi SSE 4.6 mph - N/A   Mostly Cloudy
9:53 PM 77.0 °F - 66.0 °F 69% 29.88 in 10.0 mi South 3.5 mph - N/A   Mostly Cloudy
10:53 PM 75.0 °F - 66.9 °F 76% 29.89 in 10.0 mi SSW 4.6 mph - N/A   Partly Cloudy
11:53 PM 75.0 °F - 66.9 °F 76% 29.89 in 10.0 mi SSW 4.6 mph - N/A   Mostly Cloudy